Weather History for Eagle River, WI

Change the Weather History Date:

Friday, March 1, 2013

  Actual Average Record
Temperature  
Mean Temperature 17 °F -  
Max Temperature 26 °F 35 °F 48 °F (1998)
Min Temperature 8 °F 10 °F -10 °F (2014)
Degree Days  
Heating Degree Days 48    
Moisture  
Dew Point 9 °F    
Average Humidity 66    
Maximum Humidity 79    
Minimum Humidity 43    
Precipitation  
Precipitation 0.00 in - - ()
Sea Level Pressure  
Sea Level Pressure 30.22 in    
Wind  
Wind Speed 10 mph (NNE)    
Max Wind Speed 16 mph    
Max Gust Speed 24 mph    
Visibility 10 miles    
Events Snow    
Averages and records for this station are not official NWS values.
T = Trace of Precipitation, MM = Missing Value Source: NWS Daily Summary

Daily Weather History Graph

Daily Weather History Graph

Search for Another Location

Airport:

Trip Planner

Search our weather history database for the weather conditions in past years. The results will help you decide how hot, cold, wet, or windy it might be!

Date:

Astronomy

Mar. 01, 2013 Rise Set
Actual Time 6:35 AM CST 5:44 PM CST
Civil Twilight 6:05 AM CST 6:13 PM CST
Nautical Twilight 5:30 AM CST 6:48 PM CST
Astronomical Twilight 4:56 AM CST 7:23 PM CST
Moon 10:35 PM CST (3/1) 8:06 AM CST (3/1)
Length of Visible Light 12h 08m
Length of Day
11h 08m
Waning Gibbous, 83% of the Moon is Illuminated
Mar 1
Waning Gibbous
Mar 4
Last Quarter
Mar 11
New
Mar 19
First Quarter
Mar 27
Full

Hourly Weather History & Observations

Time (CST) Temp. Windchill Dew Point Humidity Pressure Visibility Wind Dir Wind Speed Gust Speed Precip Events Conditions
12:15 AM 19.4 °F 10.4 °F 12.2 °F 74% 30.15 in 10.0 mi NNE 6.9 mph - N/A   Overcast
12:35 AM 17.6 °F 6.4 °F 12.2 °F 79% 30.15 in 10.0 mi NNE 9.2 mph - N/A   Overcast
12:55 AM 17.6 °F 7.3 °F 12.2 °F 79% 30.16 in 10.0 mi NNE 8.1 mph - N/A   Overcast
1:15 AM 17.6 °F 7.3 °F 12.2 °F 79% 30.16 in 10.0 mi NNE 8.1 mph - N/A   Overcast
1:35 AM 19.4 °F 9.5 °F 12.2 °F 74% 30.16 in 10.0 mi NNE 8.1 mph - N/A   Overcast
2:15 AM 19.4 °F 8.6 °F 12.2 °F 74% 30.16 in 10.0 mi NNE 9.2 mph - N/A   Overcast
2:35 AM 19.4 °F 8.6 °F 12.2 °F 74% 30.16 in 10.0 mi NNE 9.2 mph - N/A   Overcast
3:15 AM 19.4 °F 7.2 °F 12.2 °F 74% 30.16 in 10.0 mi NNE 11.5 mph 18.4 mph N/A   Overcast
3:35 AM 19.4 °F 5.0 °F 12.2 °F 74% 30.16 in 10.0 mi NNE 16.1 mph 20.7 mph N/A   Overcast
3:55 AM 19.4 °F 5.0 °F 12.2 °F 74% 30.17 in 10.0 mi NE 16.1 mph - N/A   Overcast
4:15 AM 17.6 °F 3.2 °F 12.2 °F 79% 30.18 in 10.0 mi NNE 15.0 mph 21.9 mph N/A Snow Light Snow
4:35 AM 17.6 °F 4.3 °F 12.2 °F 79% 30.18 in 10.0 mi NE 12.7 mph 23.0 mph N/A   Overcast
4:55 AM 17.6 °F 3.7 °F 12.2 °F 79% 30.18 in 10.0 mi NE 13.8 mph 24.2 mph N/A   Overcast
5:15 AM 17.6 °F 5.0 °F 12.2 °F 79% 30.19 in 10.0 mi NE 11.5 mph - N/A Snow Light Snow
5:35 AM 17.6 °F 3.7 °F 10.4 °F 73% 30.20 in 10.0 mi NE 13.8 mph - N/A   Overcast
5:55 AM 17.6 °F 6.4 °F 12.2 °F 79% 30.20 in 10.0 mi NE 9.2 mph - N/A Snow Light Snow
6:15 AM 17.6 °F 5.7 °F 12.2 °F 79% 30.20 in 5.0 mi NNE 10.4 mph - N/A Snow Light Snow
6:35 AM 17.6 °F 5.0 °F 10.4 °F 73% 30.21 in 5.0 mi NE 11.5 mph - N/A Snow Light Snow
6:55 AM 17.6 °F 5.7 °F 10.4 °F 73% 30.22 in 7.0 mi NNE 10.4 mph - N/A Snow Light Snow
7:15 AM 17.6 °F 5.0 °F 10.4 °F 73% 30.23 in 4.0 mi NE 11.5 mph - N/A Snow Light Snow
7:35 AM 17.6 °F 5.7 °F 10.4 °F 73% 30.23 in 5.0 mi NNE 10.4 mph - N/A Snow Light Snow
7:55 AM 17.6 °F 3.7 °F 10.4 °F 73% 30.23 in 5.0 mi NE 13.8 mph 18.4 mph N/A Snow Light Snow
8:15 AM 17.6 °F 3.2 °F 10.4 °F 73% 30.23 in 7.0 mi NE 15.0 mph 20.7 mph N/A Snow Light Snow
8:35 AM 17.6 °F 3.2 °F 10.4 °F 73% 30.24 in 10.0 mi NE 15.0 mph 18.4 mph N/A Snow Light Snow
8:55 AM 17.6 °F 2.7 °F 10.4 °F 73% 30.24 in 10.0 mi NNE 16.1 mph - N/A Snow Light Snow
9:15 AM 17.6 °F 3.2 °F 10.4 °F 73% 30.24 in 10.0 mi NNE 15.0 mph 19.6 mph N/A Snow Light Snow
9:35 AM 17.6 °F 3.2 °F 10.4 °F 73% 30.24 in 10.0 mi NNE 15.0 mph 21.9 mph N/A Snow Light Snow
9:55 AM 19.4 °F 6.0 °F 10.4 °F 68% 30.25 in 10.0 mi NE 13.8 mph 20.7 mph N/A Snow Light Snow
10:15 AM 19.4 °F 6.6 °F 10.4 °F 68% 30.25 in 10.0 mi NE 12.7 mph 18.4 mph N/A   Overcast
10:35 AM 19.4 °F 7.9 °F 10.4 °F 68% 30.25 in 10.0 mi NE 10.4 mph 18.4 mph N/A   Mostly Cloudy
10:55 AM 21.2 °F 10.9 °F 10.4 °F 63% 30.25 in 10.0 mi NE 9.2 mph - N/A   Overcast
11:15 AM 21.2 °F 8.9 °F 10.4 °F 63% 30.25 in 10.0 mi North 12.7 mph 16.1 mph N/A   Overcast
11:35 AM 21.2 °F 7.8 °F 10.4 °F 63% 30.25 in 10.0 mi NE 15.0 mph - N/A   Mostly Cloudy
12:15 PM 23.0 °F 11.1 °F 10.4 °F 59% 30.25 in 10.0 mi NE 12.7 mph 23.0 mph N/A   Mostly Cloudy
12:35 PM 23.0 °F 11.1 °F 10.4 °F 59% 30.24 in 10.0 mi NE 12.7 mph 17.3 mph N/A   Scattered Clouds
12:55 PM 23.0 °F 13.9 °F 10.4 °F 59% 30.23 in 10.0 mi NNE 8.1 mph - N/A   Clear
1:15 PM 23.0 °F 11.7 °F 10.4 °F 59% 30.23 in 10.0 mi NE 11.5 mph - N/A   Clear
1:35 PM 24.8 °F 13.4 °F 10.4 °F 54% 30.22 in 10.0 mi NE 12.7 mph 19.6 mph N/A   Clear
1:55 PM 24.8 °F 14.0 °F 10.4 °F 54% 30.22 in 10.0 mi NE 11.5 mph 17.3 mph N/A   Clear
2:15 PM 24.8 °F 14.0 °F 10.4 °F 54% 30.21 in 10.0 mi NE 11.5 mph 18.4 mph N/A   Clear
2:35 PM 26.6 °F 17.5 °F 8.6 °F 47% 30.21 in 10.0 mi North 9.2 mph - N/A   Clear
2:55 PM 26.6 °F 15.7 °F 8.6 °F 47% 30.21 in 10.0 mi NE 12.7 mph 16.1 mph N/A   Clear
3:15 PM 26.6 °F 16.2 °F 8.6 °F 47% 30.21 in 10.0 mi NNE 11.5 mph - N/A   Clear
3:35 PM 26.6 °F 16.2 °F 6.8 °F 43% 30.21 in 10.0 mi NE 11.5 mph - N/A   Clear
3:55 PM 26.6 °F 17.5 °F 6.8 °F 43% 30.21 in 10.0 mi NNE 9.2 mph 17.3 mph N/A   Clear
4:15 PM 24.8 °F 14.0 °F 5.0 °F 43% 30.22 in 10.0 mi NNE 11.5 mph - N/A   Clear
4:35 PM 24.8 °F 14.6 °F 5.0 °F 43% 30.22 in 10.0 mi NNE 10.4 mph - N/A   Clear
4:55 PM 23.0 °F 12.4 °F 6.8 °F 50% 30.22 in 10.0 mi NNE 10.4 mph - N/A   Clear
5:15 PM 23.0 °F 10.6 °F 5.0 °F 46% 30.22 in 10.0 mi NNE 13.8 mph 17.3 mph N/A   Clear
5:35 PM 21.2 °F 10.1 °F 5.0 °F 50% 30.23 in 10.0 mi NNE 10.4 mph - N/A   Clear
5:55 PM 21.2 °F 10.9 °F 5.0 °F 50% 30.23 in 10.0 mi NNE 9.2 mph - N/A   Clear
6:15 PM 19.4 °F 8.6 °F 5.0 °F 54% 30.24 in 10.0 mi NNE 9.2 mph - N/A   Clear
6:35 PM 19.4 °F 7.9 °F 3.2 °F 49% 30.24 in 10.0 mi NNE 10.4 mph - N/A   Clear
6:55 PM 19.4 °F 7.9 °F 5.0 °F 54% 30.24 in 10.0 mi NNE 10.4 mph - N/A   Clear
7:15 PM 17.6 °F 6.4 °F 5.0 °F 58% 30.25 in 10.0 mi NNE 9.2 mph 17.3 mph N/A   Clear
7:35 PM 17.6 °F 8.2 °F 6.8 °F 63% 30.25 in 10.0 mi North 6.9 mph - N/A   Clear
7:55 PM 15.8 °F 3.4 °F 6.8 °F 68% 30.25 in 10.0 mi NNE 10.4 mph - N/A   Clear
8:15 PM 15.8 °F 1.4 °F 6.8 °F 68% 30.25 in 10.0 mi NE 13.8 mph - N/A   Clear
8:55 PM 14.0 °F 2.0 °F 6.8 °F 73% 30.26 in 10.0 mi NNE 9.2 mph - N/A   Clear
9:15 PM 14.0 °F 3.9 °F 6.8 °F 73% 30.25 in 10.0 mi NNE 6.9 mph - N/A   Clear
9:35 PM 12.2 °F 2.9 °F 5.0 °F 73% 30.25 in 10.0 mi NNE 5.8 mph - N/A   Clear
9:55 PM 12.2 °F 6.1 °F 5.0 °F 73% 30.24 in 10.0 mi North 3.5 mph - N/A   Clear
10:15 PM 10.4 °F 0.8 °F 5.0 °F 79% 30.25 in 10.0 mi NNW 5.8 mph - N/A   Clear
10:35 PM 10.4 °F 2.2 °F 5.0 °F 79% 30.25 in 10.0 mi NW 4.6 mph - N/A   Clear
10:55 PM 10.4 °F 0.8 °F 3.2 °F 73% 30.25 in 10.0 mi NW 5.8 mph - N/A   Clear
11:15 PM 8.6 °F 0.1 °F 3.2 °F 79% 30.24 in 10.0 mi NNW 4.6 mph - N/A   Clear
11:35 PM 8.6 °F 0.1 °F 3.2 °F 79% 30.24 in 10.0 mi NNW 4.6 mph - N/A   Clear
11:55 PM 8.6 °F -1.3 °F 3.2 °F 79% 30.24 in 10.0 mi North 5.8 mph - N/A   Clear